Zurück zum Katalog

STARLINK-34708

AktivKommunikationSSO
NORAD 65062·PAYLOAD·🇺🇸 United States

Gestartet Jul 31, 2025 von Vandenberg Space Force Base

Loading…

Nächste Überflüge (nächste 24 Stunden)

TLE

AktuellSource: CelesTrak SupGP

Epoche: Sep 14, 2026, 21:38 UTC

1 65062C 25165G   26257.90187500  .02131500  00000+0  72689-1 0  2571
2 65062  97.2846 329.1992 0001495  93.4328  36.8062 15.29343685    12

Verfolge STARLINK-34708 in Echtzeit mit AllMySat

Download on the App Store